Precipitable_Water
1.02 1.08 1.20 1.24 1.23 1.24 1.29 1.34 1.34 1.36 1.41 1.44 1.41 1.42 1.47 1.54 1.54 1.56 1.56 1.56 1.55 1.53 1.51 1.50 1.49 1.51 1.50 1.45 1.41 1.34 1.29 1.25 1.20 1.15 1.10 0.98 0.90 0.85 0.83 0.82 0.80 0.79 0.79 0.79 0.80 0.79 0.76 0.72 0.71 0.75 0.76 0.73 0.70 0.67 0.61 0.60 0.60 0.56 0.49 0.51 0.48 0.45 0.38 0.40 0.39 0.40 0.49 0.56 0.45 0.51 0.52 0.46 0.49 0.48 0.41 0.47 0.51 0.52 0.57 0.57 0.58 0.58 0.59 0.57 0.55
1.03 1.12 1.20 1.24 1.23 1.25 1.29 1.35 1.38 1.38 1.40 1.42 1.40 1.44 1.47 1.53 1.57 1.53 1.52 1.54 1.57 1.56 1.53 1.53 1.53 1.55 1.51 1.47 1.42 1.37 1.29 1.23 1.21 1.16 1.08 0.97 0.88 0.85 0.82 0.83 0.81 0.79 0.80 0.78 0.78 0.78 0.75 0.72 0.71 0.71 0.73 0.67 0.64 0.61 0.59 0.56 0.55 0.52 0.50 0.41 0.46 0.45 0.44 0.42 0.41 0.40 0.38 0.51 0.39 0.51 0.45 0.47 0.45 0.48 0.38 0.43 0.48 0.51 0.51 0.55 0.54 0.55 0.55 0.56 0.55
1.08 1.17 1.20 1.21 1.23 1.27 1.30 1.31 1.34 1.37 1.37 1.36 1.37 1.38 1.45 1.55 1.59 1.54 1.53 1.54 1.55 1.59 1.57 1.56 1.58 1.58 1.53 1.49 1.42 1.33 1.27 1.24 1.21 1.14 1.05 0.96 0.87 0.84 0.84 0.84 0.83 0.82 0.80 0.77 0.76 0.76 0.73 0.72 0.71 0.71 0.70 0.64 0.58 0.55 0.55 0.52 0.54 0.52 0.44 0.46 0.44 0.42 0.45 0.44 0.41 0.38 0.38 0.44 0.44 0.40 0.40 0.44 0.45 0.43 0.42 0.45 0.49 0.49 0.46 0.49 0.52 0.54 0.55 0.54 0.51
1.13 1.19 1.21 1.22 1.24 1.24 1.26 1.28 1.28 1.29 1.29 1.32 1.31 1.34 1.38 1.45 1.50 1.53 1.53 1.54 1.53 1.56 1.57 1.56 1.59 1.57 1.51 1.46 1.39 1.31 1.26 1.20 1.17 1.12 1.04 0.96 0.87 0.84 0.85 0.86 0.85 0.84 0.81 0.78 0.76 0.75 0.72 0.70 0.70 0.69 0.65 0.58 0.58 0.55 0.51 0.52 0.49 0.46 0.50 0.49 0.49 0.40 0.45 0.47 0.47 0.40 0.42 0.36 0.38 0.42 0.42 0.40 0.43 0.44 0.42 0.44 0.45 0.45 0.43 0.47 0.53 0.50 0.54 0.52 0.50
1.17 1.21 1.21 1.19 1.20 1.20 1.21 1.24 1.23 1.24 1.28 1.31 1.32 1.34 1.38 1.43 1.49 1.50 1.50 1.51 1.54 1.54 1.55 1.57 1.56 1.56 1.50 1.42 1.35 1.27 1.20 1.13 1.13 1.10 1.03 0.97 0.90 0.87 0.87 0.86 0.87 0.86 0.85 0.82 0.79 0.75 0.72 0.68 0.66 0.64 0.61 0.57 0.55 0.54 0.49 0.50 0.48 0.46 0.46 0.49 0.50 0.46 0.49 0.45 0.43 0.47 0.39 0.35 0.37 0.44 0.44 0.41 0.41 0.41 0.40 0.34 0.41 0.44 0.44 0.44 0.46 0.44 0.47 0.51 0.51
1.20 1.20 1.19 1.16 1.17 1.17 1.20 1.22 1.21 1.22 1.24 1.28 1.31 1.35 1.43 1.49 1.51 1.53 1.51 1.51 1.56 1.57 1.52 1.55 1.52 1.53 1.50 1.41 1.34 1.28 1.18 1.11 1.13 1.09 1.02 0.98 0.92 0.89 0.88 0.87 0.88 0.87 0.85 0.82 0.78 0.74 0.70 0.66 0.63 0.59 0.55 0.52 0.51 0.52 0.51 0.47 0.46 0.44 0.43 0.44 0.47 0.50 0.50 0.46 0.47 0.45 0.34 0.40 0.37 0.37 0.41 0.36 0.34 0.38 0.38 0.37 0.38 0.38 0.40 0.42 0.44 0.40 0.40 0.40 0.45
1.19 1.18 1.16 1.16 1.16 1.18 1.20 1.20 1.19 1.21 1.24 1.24 1.29 1.36 1.43 1.46 1.47 1.51 1.55 1.53 1.53 1.51 1.52 1.51 1.54 1.53 1.48 1.41 1.34 1.27 1.16 1.11 1.12 1.08 1.03 0.98 0.93 0.90 0.87 0.87 0.88 0.88 0.86 0.83 0.79 0.74 0.68 0.62 0.58 0.54 0.50 0.48 0.46 0.46 0.47 0.49 0.45 0.38 0.42 0.44 0.45 0.47 0.47 0.34 0.43 0.42 0.36 0.35 0.38 0.38 0.35 0.36 0.36 0.33 0.37 0.38 0.40 0.40 0.37 0.38 0.37 0.38 0.40 0.39 0.38
1.17 1.15 1.15 1.14 1.15 1.18 1.19 1.18 1.18 1.21 1.23 1.26 1.31 1.38 1.44 1.46 1.47 1.49 1.52 1.51 1.50 1.51 1.52 1.51 1.52 1.50 1.45 1.38 1.32 1.23 1.14 1.11 1.11 1.08 1.03 0.98 0.94 0.90 0.89 0.88 0.89 0.87 0.85 0.82 0.79 0.71 0.64 0.58 0.54 0.48 0.43 0.40 0.39 0.44 0.47 0.45 0.46 0.42 0.40 0.44 0.46 0.46 0.43 0.39 0.40 0.42 0.38 0.35 0.33 0.35 0.33 0.32 0.36 0.39 0.36 0.35 0.34 0.36 0.40 0.38 0.33 0.32 0.35 0.40 0.43
1.14 1.13 1.12 1.11 1.13 1.17 1.17 1.18 1.19 1.19 1.23 1.29 1.35 1.43 1.44 1.46 1.46 1.47 1.50 1.52 1.54 1.55 1.54 1.52 1.49 1.45 1.42 1.35 1.28 1.21 1.12 1.09 1.11 1.09 1.04 0.98 0.94 0.90 0.90 0.90 0.88 0.85 0.83 0.82 0.77 0.68 0.62 0.55 0.43 0.41 0.41 0.39 0.36 0.36 0.41 0.43 0.42 0.36 0.36 0.41 0.43 0.43 0.40 0.39 0.38 0.40 0.37 0.32 0.32 0.34 0.32 0.31 0.33 0.31 0.28 0.28 0.28 0.31 0.37 0.40 0.36 0.37 0.39 0.40 0.45
1.13 1.12 1.11 1.13 1.15 1.16 1.17 1.17 1.18 1.21 1.25 1.28 1.34 1.43 1.43 1.41 1.41 1.44 1.49 1.52 1.53 1.52 1.50 1.51 1.47 1.40 1.36 1.32 1.28 1.19 1.11 1.10 1.11 1.10 1.05 0.99 0.96 0.93 0.91 0.90 0.87 0.85 0.84 0.81 0.75 0.65 0.58 0.49 0.47 0.47 0.45 0.41 0.37 0.35 0.35 0.33 0.33 0.32 0.33 0.39 0.43 0.41 0.39 0.35 0.34 0.34 0.35 0.31 0.28 0.29 0.29 0.29 0.31 0.29 0.28 0.29 0.32 0.36 0.36 0.37 0.35 0.37 0.40 0.40 0.43
1.12 1.12 1.12 1.16 1.15 1.15 1.14 1.13 1.17 1.18 1.24 1.29 1.34 1.36 1.35 1.36 1.38 1.39 1.45 1.45 1.46 1.47 1.47 1.44 1.41 1.38 1.34 1.28 1.23 1.17 1.11 1.10 1.12 1.11 1.05 1.00 0.96 0.93 0.90 0.89 0.88 0.87 0.86 0.81 0.71 0.64 0.58 0.51 0.52 0.52 0.51 0.48 0.44 0.40 0.37 0.37 0.36 0.34 0.33 0.36 0.41 0.42 0.35 0.31 0.31 0.33 0.32 0.30 0.28 0.27 0.28 0.29 0.30 0.30 0.27 0.29 0.31 0.33 0.35 0.37 0.37 0.37 0.35 0.32 0.30
1.13 1.14 1.16 1.15 1.13 1.10 1.10 1.12 1.14 1.18 1.23 1.26 1.30 1.31 1.31 1.33 1.34 1.34 1.35 1.41 1.43 1.46 1.42 1.40 1.38 1.35 1.32 1.27 1.21 1.14 1.11 1.13 1.14 1.10 1.04 0.99 0.97 0.94 0.93 0.90 0.91 0.90 0.87 0.79 0.73 0.66 0.65 0.60 0.59 0.57 0.55 0.51 0.49 0.46 0.42 0.39 0.37 0.36 0.35 0.34 0.34 0.36 0.37 0.35 0.31 0.31 0.30 0.29 0.27 0.26 0.28 0.28 0.30 0.28 0.28 0.27 0.30 0.34 0.36 0.37 0.37 0.37 0.36 0.34 0.37
1.16 1.15 1.16 1.12 1.08 1.08 1.10 1.11 1.13 1.18 1.21 1.24 1.27 1.27 1.27 1.28 1.28 1.26 1.28 1.36 1.38 1.37 1.36 1.34 1.32 1.31 1.27 1.22 1.18 1.15 1.14 1.15 1.14 1.10 1.03 1.00 0.98 0.97 0.96 0.96 0.94 0.90 0.84 0.78 0.73 0.71 0.71 0.70 0.67 0.60 0.58 0.57 0.55 0.52 0.49 0.44 0.42 0.42 0.39 0.36 0.33 0.32 0.32 0.35 0.36 0.36 0.35 0.29 0.29 0.27 0.26 0.28 0.26 0.28 0.30 0.28 0.33 0.32 0.34 0.34 0.36 0.37 0.39 0.38 0.41
1.17 1.15 1.13 1.08 1.06 1.07 1.08 1.10 1.12 1.17 1.21 1.23 1.24 1.22 1.22 1.21 1.23 1.26 1.29 1.33 1.32 1.31 1.33 1.30 1.28 1.25 1.22 1.20 1.17 1.16 1.15 1.15 1.13 1.08 1.03 1.00 0.99 0.99 0.99 0.96 0.92 0.85 0.81 0.78 0.75 0.74 0.73 0.68 0.59 0.54 0.58 0.60 0.57 0.55 0.53 0.51 0.48 0.44 0.42 0.40 0.37 0.35 0.34 0.36 0.35 0.37 0.37 0.33 0.30 0.26 0.27 0.31 0.29 0.32 0.33 0.33 0.31 0.31 0.32 0.33 0.36 0.36 0.39 0.39 0.47
1.17 1.15 1.08 1.06 1.05 1.06 1.07 1.08 1.10 1.13 1.16 1.18 1.19 1.18 1.19 1.19 1.20 1.24 1.26 1.27 1.26 1.24 1.25 1.24 1.24 1.23 1.21 1.20 1.18 1.16 1.16 1.15 1.12 1.07 1.04 1.02 1.01 0.99 0.99 0.92 0.87 0.83 0.81 0.78 0.78 0.77 0.74 0.65 0.62 0.63 0.61 0.56 0.56 0.53 0.51 0.52 0.52 0.49 0.46 0.43 0.39 0.35 0.34 0.34 0.34 0.33 0.31 0.29 0.30 0.31 0.33 0.37 0.37 0.36 0.35 0.36 0.35 0.36 0.37 0.37 0.38 0.39 0.41 0.44 0.47
1.17 1.12 1.06 1.06 1.04 1.05 1.05 1.06 1.07 1.09 1.11 1.12 1.12 1.13 1.16 1.18 1.18 1.23 1.24 1.26 1.26 1.28 1.26 1.24 1.20 1.18 1.19 1.20 1.19 1.16 1.15 1.15 1.10 1.06 1.04 1.02 1.00 0.95 0.92 0.86 0.84 0.82 0.79 0.77 0.78 0.78 0.73 0.72 0.68 0.61 0.55 0.53 0.51 0.52 0.51 0.51 0.52 0.50 0.46 0.44 0.42 0.40 0.38 0.37 0.36 0.36 0.37 0.36 0.36 0.36 0.38 0.38 0.39 0.38 0.36 0.36 0.36 0.38 0.37 0.38 0.37 0.37 0.32 0.32 0.30
1.15 1.10 1.06 1.05 1.05 1.05 1.05 1.03 1.03 1.04 1.07 1.06 1.07 1.09 1.12 1.16 1.19 1.23 1.22 1.24 1.22 1.20 1.19 1.18 1.19 1.18 1.18 1.20 1.18 1.16 1.14 1.13 1.09 1.06 1.03 1.01 0.95 0.90 0.88 0.85 0.83 0.80 0.78 0.77 0.78 0.80 0.78 0.74 0.65 0.60 0.54 0.48 0.48 0.49 0.48 0.49 0.51 0.50 0.44 0.45 0.45 0.43 0.41 0.40 0.40 0.39 0.38 0.38 0.38 0.38 0.38 0.39 0.40 0.39 0.37 0.36 0.36 0.36 0.34 0.28 0.25 0.30 0.27 0.22 0.28
1.13 1.08 1.06 1.06 1.07 1.07 1.07 1.06 1.04 1.05 1.06 1.05 1.06 1.09 1.14 1.18 1.20 1.24 1.21 1.20 1.18 1.17 1.17 1.16 1.18 1.17 1.15 1.16 1.17 1.14 1.12 1.11 1.07 1.04 1.02 0.99 0.94 0.89 0.88 0.85 0.82 0.80 0.78 0.78 0.79 0.79 0.77 0.73 0.63 0.58 0.49 0.44 0.46 0.46 0.47 0.48 0.48 0.48 0.45 0.45 0.44 0.41 0.42 0.43 0.41 0.41 0.41 0.41 0.41 0.41 0.40 0.40 0.41 0.40 0.38 0.36 0.36 0.35 0.29 0.24 0.27 0.29 0.24 0.25 0.24
1.13 1.08 1.07 1.09 1.10 1.09 1.08 1.07 1.06 1.05 1.05 1.07 1.09 1.10 1.12 1.14 1.16 1.21 1.22 1.21 1.19 1.18 1.17 1.16 1.16 1.16 1.15 1.15 1.15 1.11 1.08 1.06 1.05 1.03 1.01 0.97 0.94 0.92 0.90 0.85 0.82 0.79 0.77 0.76 0.79 0.77 0.75 0.71 0.63 0.57 0.49 0.45 0.45 0.44 0.45 0.45 0.45 0.44 0.44 0.45 0.39 0.29 0.31 0.38 0.40 0.41 0.42 0.40 0.42 0.43 0.42 0.41 0.42 0.42 0.40 0.38 0.37 0.37 0.32 0.28 0.29 0.25 0.22 0.23 0.24
1.16 1.15 1.14 1.14 1.13 1.13 1.12 1.11 1.10 1.08 1.08 1.10 1.13 1.14 1.16 1.15 1.17 1.18 1.21 1.24 1.23 1.21 1.19 1.16 1.14 1.13 1.15 1.14 1.12 1.10 1.06 1.03 1.03 1.02 1.00 0.96 0.94 0.92 0.90 0.86 0.81 0.77 0.76 0.75 0.76 0.75 0.72 0.68 0.62 0.58 0.51 0.45 0.43 0.42 0.41 0.42 0.41 0.40 0.42 0.42 0.43 0.37 0.41 0.44 0.42 0.44 0.44 0.44 0.41 0.45 0.43 0.43 0.42 0.43 0.43 0.41 0.38 0.38 0.34 0.31 0.28 0.26 0.23 0.21 0.22
1.21 1.19 1.17 1.16 1.15 1.16 1.16 1.15 1.13 1.13 1.15 1.14 1.16 1.15 1.17 1.16 1.15 1.16 1.18 1.22 1.23 1.21 1.19 1.18 1.16 1.13 1.13 1.12 1.10 1.09 1.05 1.01 1.00 0.99 0.97 0.94 0.93 0.91 0.87 0.86 0.83 0.79 0.75 0.77 0.77 0.73 0.69 0.66 0.61 0.56 0.51 0.43 0.40 0.38 0.37 0.36 0.36 0.38 0.40 0.40 0.40 0.42 0.43 0.44 0.44 0.45 0.44 0.45 0.40 0.42 0.43 0.41 0.40 0.41 0.44 0.40 0.36 0.36 0.35 0.34 0.33 0.31 0.29 0.27 0.25
1.23 1.21 1.19 1.18 1.18 1.18 1.19 1.19 1.19 1.17 1.16 1.16 1.15 1.15 1.19 1.20 1.18 1.17 1.17 1.16 1.18 1.19 1.20 1.18 1.14 1.11 1.11 1.11 1.10 1.09 1.06 1.02 0.99 0.98 0.97 0.94 0.91 0.90 0.87 0.85 0.86 0.82 0.79 0.76 0.72 0.72 0.69 0.63 0.59 0.56 0.51 0.43 0.38 0.35 0.32 0.33 0.33 0.34 0.34 0.35 0.38 0.40 0.41 0.41 0.43 0.44 0.43 0.38 0.35 0.32 0.34 0.36 0.36 0.36 0.35 0.36 0.35 0.38 0.36 0.35 0.36 0.35 0.35 0.36 0.33
1.26 1.23 1.21 1.19 1.19 1.18 1.19 1.19 1.19 1.18 1.16 1.17 1.16 1.16 1.19 1.17 1.17 1.18 1.17 1.16 1.15 1.19 1.19 1.17 1.13 1.11 1.10 1.10 1.11 1.10 1.07 1.02 1.00 0.95 0.94 0.92 0.90 0.89 0.86 0.85 0.86 0.85 0.79 0.71 0.66 0.68 0.70 0.60 0.59 0.55 0.48 0.42 0.39 0.37 0.35 0.35 0.35 0.36 0.37 0.37 0.37 0.38 0.39 0.39 0.40 0.40 0.36 0.33 0.32 0.30 0.29 0.30 0.31 0.30 0.32 0.32 0.34 0.34 0.38 0.39 0.39 0.38 0.39 0.40 0.40
1.24 1.21 1.19 1.19 1.18 1.20 1.22 1.23 1.23 1.22 1.20 1.20 1.20 1.18 1.18 1.19 1.19 1.18 1.18 1.17 1.15 1.13 1.16 1.15 1.14 1.10 1.07 1.07 1.08 1.08 1.07 1.02 1.00 0.97 0.92 0.90 0.89 0.86 0.85 0.84 0.85 0.84 0.79 0.72 0.74 0.71 0.66 0.63 0.61 0.55 0.46 0.42 0.40 0.39 0.36 0.34 0.35 0.38 0.39 0.40 0.41 0.41 0.43 0.42 0.40 0.34 0.35 0.34 0.34 0.31 0.31 0.31 0.30 0.29 0.30 0.33 0.35 0.35 0.34 0.39 0.40 0.39 0.39 0.41 0.43
1.21 1.18 1.16 1.15 1.16 1.18 1.19 1.19 1.20 1.20 1.19 1.18 1.15 1.16 1.16 1.18 1.16 1.19 1.18 1.17 1.16 1.14 1.14 1.15 1.12 1.09 1.07 1.05 1.04 1.05 1.04 1.02 1.01 0.97 0.90 0.89 0.86 0.84 0.84 0.84 0.84 0.81 0.76 0.78 0.77 0.74 0.72 0.69 0.62 0.53 0.45 0.42 0.41 0.39 0.36 0.34 0.37 0.40 0.41 0.41 0.43 0.43 0.42 0.41 0.42 0.39 0.34 0.32 0.32 0.34 0.34 0.34 0.33 0.33 0.34 0.34 0.34 0.34 0.33 0.35 0.39 0.41 0.39 0.40 0.42
1.18 1.16 1.15 1.14 1.15 1.16 1.14 1.15 1.16 1.16 1.15 1.16 1.15 1.15 1.14 1.14 1.13 1.15 1.16 1.16 1.16 1.14 1.12 1.09 1.08 1.06 1.04 1.03 1.02 1.02 1.00 0.96 0.94 0.91 0.88 0.85 0.83 0.83 0.84 0.83 0.81 0.78 0.78 0.77 0.76 0.74 0.72 0.67 0.59 0.50 0.44 0.43 0.41 0.39 0.36 0.37 0.39 0.40 0.41 0.41 0.42 0.41 0.43 0.44 0.40 0.40 0.38 0.37 0.36 0.35 0.35 0.38 0.36 0.37 0.36 0.35 0.32 0.27 0.31 0.32 0.34 0.37 0.37 0.37 0.37
1.13 1.11 1.11 1.12 1.12 1.11 1.08 1.07 1.09 1.11 1.12 1.13 1.13 1.13 1.13 1.11 1.10 1.11 1.13 1.13 1.14 1.13 1.12 1.09 1.05 1.03 1.04 1.05 1.00 0.98 0.94 0.87 0.87 0.87 0.86 0.82 0.81 0.81 0.81 0.80 0.78 0.76 0.75 0.74 0.73 0.71 0.68 0.62 0.50 0.45 0.44 0.43 0.43 0.44 0.42 0.42 0.43 0.43 0.42 0.39 0.35 0.32 0.39 0.41 0.39 0.40 0.38 0.38 0.38 0.40 0.39 0.42 0.42 0.40 0.40 0.38 0.36 0.34 0.31 0.33 0.33 0.34 0.35 0.36 0.36
1.07 1.07 1.07 1.08 1.08 1.08 1.06 1.05 1.04 1.04 1.07 1.07 1.07 1.08 1.10 1.09 1.06 1.07 1.09 1.12 1.12 1.11 1.11 1.08 1.06 1.04 1.04 0.99 0.98 0.97 0.90 0.87 0.87 0.86 0.86 0.83 0.83 0.82 0.80 0.78 0.75 0.76 0.79 0.79 0.75 0.70 0.65 0.55 0.46 0.45 0.45 0.43 0.43 0.44 0.43 0.45 0.47 0.48 0.45 0.41 0.40 0.42 0.40 0.39 0.40 0.40 0.37 0.41 0.38 0.37 0.38 0.41 0.39 0.37 0.39 0.39 0.38 0.40 0.37 0.36 0.32 0.34 0.35 0.34 0.32
0.99 1.00 1.02 1.03 1.02 1.02 1.02 1.02 1.01 1.00 1.00 1.03 1.05 1.07 1.07 1.05 1.03 1.06 1.13 1.15 1.13 1.08 1.07 1.10 1.12 1.08 1.04 1.01 0.99 0.94 0.89 0.87 0.89 0.87 0.84 0.83 0.83 0.81 0.79 0.80 0.82 0.81 0.80 0.75 0.68 0.64 0.57 0.46 0.42 0.42 0.40 0.39 0.41 0.44 0.48 0.47 0.45 0.46 0.46 0.46 0.48 0.47 0.45 0.44 0.38 0.34 0.30 0.35 0.36 0.35 0.30 0.37 0.38 0.37 0.37 0.33 0.33 0.39 0.40 0.35 0.40 0.38 0.38 0.39 0.34
0.90 0.91 0.93 0.93 0.94 0.96 0.97 0.99 0.99 0.98 0.98 0.99 1.00 1.02 1.06 1.06 1.06 1.05 1.07 1.12 1.13 1.14 1.14 1.12 1.13 1.10 1.05 1.04 1.03 0.95 0.91 0.91 0.92 0.89 0.87 0.84 0.83 0.84 0.85 0.82 0.79 0.73 0.67 0.62 0.57 0.49 0.41 0.38 0.38 0.40 0.42 0.43 0.44 0.46 0.48 0.49 0.49 0.44 0.41 0.38 0.45 0.41 0.42 0.41 0.37 0.34 0.30 0.31 0.33 0.34 0.28 0.35 0.35 0.31 0.34 0.31 0.32 0.37 0.39 0.34 0.38 0.41 0.35 0.38 0.35
0.86 0.86 0.87 0.89 0.91 0.93 0.94 0.94 0.96 0.97 0.97 0.97 0.98 0.98 0.98 1.01 1.04 1.06 1.07 1.09 1.10 1.11 1.13 1.13 1.11 1.08 1.06 1.00 1.03 1.03 0.99 0.95 0.93 0.90 0.88 0.86 0.84 0.81 0.74 0.74 0.72 0.66 0.60 0.53 0.46 0.43 0.42 0.42 0.43 0.45 0.44 0.47 0.47 0.50 0.51 0.50 0.48 0.46 0.44 0.43 0.41 0.37 0.29 0.41 0.38 0.37 0.39 0.38 0.33 0.34 0.31 0.32 0.32 0.31 0.31 0.33 0.31 0.35 0.37 0.36 0.36 0.38 0.35 0.34 0.32
0.84 0.84 0.87 0.89 0.89 0.89 0.90 0.92 0.93 0.94 0.96 0.97 0.97 0.97 0.97 0.95 0.97 1.02 1.04 1.05 1.06 1.05 1.07 1.09 1.10 1.09 1.05 1.01 1.00 0.99 0.98 0.95 0.92 0.89 0.87 0.83 0.78 0.71 0.67 0.68 0.65 0.59 0.56 0.50 0.50 0.49 0.48 0.48 0.47 0.48 0.47 0.48 0.48 0.46 0.48 0.45 0.45 0.43 0.45 0.44 0.40 0.35 0.37 0.37 0.38 0.36 0.36 0.33 0.31 0.34 0.31 0.32 0.34 0.31 0.32 0.32 0.32 0.32 0.32 0.30 0.32 0.32 0.32 0.31 0.30
0.84 0.86 0.88 0.89 0.88 0.88 0.87 0.88 0.90 0.92 0.94 0.95 0.95 0.96 0.96 0.95 0.93 0.94 0.98 1.03 1.04 1.03 1.02 1.03 1.06 1.06 1.04 1.02 1.01 0.99 0.97 0.96 0.92 0.89 0.84 0.77 0.72 0.69 0.67 0.65 0.61 0.59 0.55 0.50 0.47 0.47 0.48 0.47 0.45 0.46 0.44 0.45 0.45 0.42 0.38 0.42 0.39 0.43 0.42 0.39 0.38 0.39 0.38 0.36 0.33 0.33 0.32 0.31 0.34 0.36 0.33 0.31 0.30 0.30 0.31 0.30 0.30 0.30 0.31 0.30 0.30 0.31 0.29 0.27 0.26
0.86 0.86 0.86 0.87 0.87 0.87 0.87 0.87 0.87 0.88 0.92 0.95 0.96 0.95 0.95 0.96 0.95 0.95 0.94 0.95 0.96 0.97 0.99 1.01 1.04 1.06 1.05 1.03 1.02 1.00 0.98 0.96 0.91 0.87 0.81 0.75 0.71 0.67 0.63 0.61 0.59 0.56 0.49 0.47 0.46 0.45 0.46 0.46 0.45 0.44 0.43 0.42 0.40 0.38 0.41 0.42 0.42 0.41 0.41 0.41 0.42 0.41 0.38 0.35 0.40 0.35 0.33 0.34 0.34 0.32 0.31 0.26 0.29 0.30 0.28 0.27 0.28 0.29 0.28 0.29 0.31 0.29 0.27 0.26 0.24
0.86 0.86 0.87 0.87 0.87 0.87 0.88 0.88 0.88 0.87 0.88 0.91 0.93 0.94 0.95 0.96 0.96 0.95 0.93 0.90 0.92 0.94 0.96 0.98 1.03 1.06 1.04 1.01 1.00 0.99 0.96 0.94 0.91 0.86 0.80 0.75 0.69 0.65 0.63 0.56 0.50 0.47 0.50 0.52 0.49 0.48 0.49 0.49 0.45 0.45 0.46 0.44 0.43 0.41 0.39 0.43 0.40 0.39 0.37 0.39 0.40 0.39 0.37 0.34 0.33 0.34 0.32 0.31 0.32 0.31 0.28 0.27 0.29 0.28 0.27 0.26 0.26 0.26 0.26 0.28 0.28 0.27 0.25 0.24 0.23
0.86 0.86 0.87 0.88 0.88 0.88 0.89 0.88 0.89 0.88 0.88 0.89 0.93 0.95 0.96 0.96 0.95 0.94 0.93 0.92 0.92 0.90 0.93 0.96 1.00 1.01 1.00 0.98 0.97 0.98 0.97 0.95 0.90 0.85 0.77 0.74 0.69 0.64 0.55 0.52 0.50 0.51 0.50 0.48 0.49 0.49 0.49 0.47 0.49 0.47 0.46 0.43 0.41 0.39 0.41 0.40 0.39 0.41 0.40 0.38 0.37 0.36 0.36 0.35 0.34 0.31 0.28 0.29 0.30 0.32 0.30 0.31 0.31 0.31 0.31 0.30 0.29 0.28 0.26 0.27 0.27 0.27 0.26 0.24 0.24
0.86 0.86 0.86 0.87 0.88 0.88 0.89 0.90 0.90 0.91 0.91 0.91 0.92 0.94 0.95 0.96 0.95 0.93 0.92 0.88 0.85 0.85 0.86 0.87 0.89 0.90 0.92 0.93 0.95 0.95 0.93 0.91 0.88 0.84 0.77 0.70 0.63 0.59 0.52 0.47 0.45 0.44 0.44 0.47 0.51 0.54 0.48 0.48 0.50 0.48 0.48 0.45 0.41 0.43 0.45 0.45 0.45 0.42 0.40 0.38 0.37 0.36 0.36 0.35 0.32 0.28 0.26 0.28 0.29 0.31 0.31 0.31 0.31 0.31 0.30 0.29 0.29 0.27 0.27 0.29 0.28 0.27 0.25 0.25 0.26
0.88 0.88 0.88 0.89 0.89 0.89 0.89 0.89 0.89 0.90 0.90 0.90 0.91 0.92 0.92 0.93 0.92 0.91 0.89 0.88 0.87 0.85 0.84 0.86 0.87 0.86 0.84 0.85 0.89 0.88 0.87 0.85 0.83 0.78 0.73 0.64 0.57 0.53 0.50 0.48 0.48 0.48 0.49 0.53 0.55 0.51 0.49 0.50 0.51 0.50 0.48 0.47 0.47 0.47 0.46 0.45 0.43 0.38 0.34 0.35 0.36 0.35 0.31 0.30 0.35 0.33 0.32 0.32 0.32 0.30 0.29 0.29 0.29 0.29 0.28 0.27 0.27 0.27 0.28 0.28 0.27 0.26 0.27 0.27 0.27
0.91 0.91 0.91 0.90 0.90 0.89 0.89 0.89 0.89 0.89 0.89 0.89 0.89 0.88 0.89 0.91 0.91 0.92 0.90 0.88 0.86 0.86 0.85 0.85 0.85 0.85 0.85 0.86 0.85 0.86 0.86 0.82 0.77 0.72 0.66 0.59 0.55 0.55 0.54 0.54 0.54 0.56 0.57 0.55 0.51 0.47 0.50 0.50 0.51 0.51 0.49 0.47 0.45 0.44 0.42 0.41 0.41 0.40 0.39 0.38 0.36 0.36 0.34 0.35 0.35 0.35 0.33 0.30 0.31 0.30 0.29 0.29 0.29 0.28 0.28 0.27 0.27 0.27 0.27 0.28 0.29 0.29 0.28 0.28 0.29
0.92 0.91 0.91 0.91 0.90 0.90 0.90 0.89 0.89 0.89 0.89 0.88 0.87 0.88 0.87 0.87 0.87 0.86 0.86 0.84 0.83 0.83 0.83 0.83 0.84 0.85 0.86 0.86 0.85 0.86 0.81 0.79 0.74 0.68 0.58 0.54 0.55 0.56 0.58 0.57 0.58 0.58 0.56 0.53 0.49 0.53 0.52 0.51 0.51 0.50 0.47 0.45 0.43 0.42 0.42 0.41 0.40 0.39 0.38 0.37 0.33 0.36 0.35 0.32 0.30 0.30 0.30 0.31 0.31 0.30 0.30 0.30 0.30 0.30 0.31 0.32 0.32 0.33 0.32 0.32 0.32 0.32 0.33 0.33 0.34
0.94 0.93 0.91 0.91 0.91 0.91 0.90 0.88 0.87 0.87 0.87 0.86 0.86 0.86 0.85 0.86 0.85 0.85 0.85 0.84 0.84 0.84 0.84 0.86 0.86 0.86 0.87 0.86 0.87 0.86 0.82 0.75 0.65 0.57 0.51 0.55 0.56 0.56 0.56 0.59 0.60 0.56 0.57 0.54 0.51 0.55 0.54 0.52 0.50 0.47 0.45 0.44 0.43 0.43 0.42 0.41 0.41 0.39 0.38 0.37 0.37 0.35 0.34 0.36 0.36 0.35 0.35 0.34 0.33 0.33 0.33 0.33 0.33 0.36 0.36 0.37 0.37 0.37 0.36 0.37 0.37 0.37 0.37 0.37 0.37
0.94 0.93 0.91 0.90 0.91 0.91 0.90 0.89 0.88 0.86 0.86 0.85 0.84 0.84 0.84 0.84 0.86 0.86 0.86 0.85 0.85 0.85 0.84 0.85 0.86 0.87 0.87 0.87 0.85 0.79 0.70 0.61 0.55 0.51 0.50 0.53 0.55 0.54 0.57 0.59 0.59 0.59 0.59 0.56 0.53 0.51 0.51 0.50 0.46 0.45 0.44 0.43 0.42 0.43 0.43 0.42 0.41 0.41 0.39 0.38 0.38 0.37 0.36 0.37 0.37 0.37 0.36 0.35 0.35 0.36 0.36 0.37 0.39 0.40 0.40 0.41 0.40 0.41 0.41 0.40 0.40 0.40 0.40 0.40 0.40
0.96 0.95 0.94 0.93 0.91 0.90 0.89 0.89 0.89 0.87 0.85 0.83 0.82 0.83 0.83 0.83 0.83 0.83 0.83 0.84 0.84 0.84 0.84 0.84 0.85 0.86 0.84 0.79 0.71 0.67 0.67 0.67 0.64 0.57 0.50 0.52 0.53 0.54 0.60 0.60 0.61 0.58 0.57 0.56 0.53 0.50 0.47 0.46 0.45 0.45 0.45 0.47 0.48 0.46 0.44 0.44 0.43 0.42 0.42 0.41 0.39 0.38 0.37 0.37 0.37 0.36 0.37 0.37 0.37 0.39 0.41 0.42 0.42 0.43 0.43 0.43 0.43 0.43 0.43 0.42 0.42 0.42 0.42 0.42 0.41
0.98 0.97 0.96 0.94 0.93 0.93 0.92 0.90 0.88 0.87 0.86 0.83 0.81 0.80 0.80 0.81 0.83 0.85 0.84 0.83 0.81 0.80 0.79 0.79 0.79 0.76 0.70 0.67 0.67 0.68 0.69 0.69 0.68 0.61 0.51 0.51 0.57 0.60 0.60 0.61 0.60 0.56 0.53 0.51 0.49 0.48 0.48 0.48 0.48 0.48 0.48 0.48 0.47 0.46 0.45 0.44 0.43 0.41 0.40 0.39 0.38 0.38 0.37 0.37 0.37 0.39 0.40 0.42 0.43 0.44 0.44 0.45 0.45 0.45 0.44 0.44 0.45 0.44 0.43 0.43 0.43 0.42 0.42 0.42 0.41
0.96 0.95 0.95 0.94 0.94 0.92 0.90 0.90 0.88 0.84 0.80 0.78 0.76 0.76 0.76 0.78 0.79 0.79 0.78 0.76 0.75 0.74 0.72 0.70 0.68 0.65 0.64 0.66 0.67 0.66 0.67 0.66 0.65 0.61 0.58 0.58 0.58 0.58 0.59 0.58 0.56 0.53 0.52 0.50 0.50 0.50 0.49 0.49 0.48 0.47 0.45 0.45 0.44 0.43 0.41 0.41 0.40 0.38 0.38 0.37 0.36 0.36 0.38 0.40 0.43 0.45 0.46 0.46 0.46 0.46 0.46 0.46 0.46 0.46 0.46 0.46 0.45 0.45 0.44 0.43 0.43 0.42 0.41 0.40 0.39
0.95 0.95 0.94 0.93 0.91 0.91 0.91 0.89 0.86 0.82 0.79 0.78 0.76 0.75 0.74 0.74 0.74 0.74 0.75 0.76 0.75 0.74 0.73 0.69 0.64 0.64 0.66 0.65 0.64 0.63 0.64 0.64 0.63 0.61 0.59 0.57 0.57 0.57 0.57 0.56 0.55 0.53 0.52 0.52 0.51 0.49 0.49 0.48 0.46 0.45 0.44 0.43 0.41 0.40 0.40 0.39 0.38 0.38 0.40 0.41 0.42 0.43 0.45 0.46 0.47 0.47 0.48 0.48 0.48 0.48 0.47 0.47 0.47 0.46 0.45 0.44 0.43 0.43 0.42 0.41 0.40 0.39 0.38 0.36 0.35
0.93 0.94 0.93 0.92 0.90 0.90 0.90 0.88 0.85 0.82 0.80 0.79 0.78 0.77 0.76 0.75 0.75 0.75 0.76 0.76 0.74 0.73 0.72 0.68 0.66 0.65 0.64 0.62 0.62 0.62 0.62 0.61 0.60 0.59 0.58 0.57 0.58 0.57 0.55 0.54 0.51 0.50 0.49 0.48 0.47 0.46 0.45 0.44 0.43 0.43 0.42 0.41 0.40 0.40 0.40 0.41 0.42 0.43 0.44 0.45 0.46 0.47 0.47 0.48 0.48 0.48 0.49 0.49 0.48 0.47 0.45 0.45 0.43 0.42 0.41 0.41 0.40 0.39 0.38 0.36 0.35 0.33 0.32 0.33 0.32
0.92 0.91 0.91 0.91 0.90 0.88 0.88 0.87 0.83 0.80 0.79 0.78 0.77 0.77 0.75 0.75 0.75 0.75 0.75 0.74 0.73 0.72 0.70 0.68 0.67 0.66 0.64 0.63 0.63 0.62 0.61 0.60 0.58 0.58 0.57 0.56 0.55 0.53 0.51 0.50 0.48 0.46 0.45 0.45 0.45 0.44 0.44 0.44 0.44 0.44 0.43 0.42 0.43 0.43 0.43 0.44 0.44 0.45 0.45 0.46 0.46 0.46 0.46 0.47 0.47 0.47 0.47 0.46 0.45 0.43 0.41 0.41 0.40 0.38 0.38 0.36 0.35 0.34 0.32 0.31 0.31 0.31 0.31 0.30 0.31
0.88 0.89 0.90 0.89 0.88 0.87 0.86 0.85 0.82 0.79 0.78 0.77 0.76 0.76 0.76 0.76 0.75 0.75 0.74 0.74 0.74 0.73 0.72 0.70 0.69 0.69 0.68 0.67 0.66 0.64 0.61 0.60 0.59 0.58 0.56 0.55 0.53 0.52 0.51 0.49 0.47 0.46 0.45 0.44 0.44 0.44 0.44 0.45 0.45 0.45 0.45 0.44 0.44 0.44 0.43 0.44 0.44 0.45 0.45 0.45 0.44 0.44 0.44 0.43 0.43 0.42 0.41 0.41 0.41 0.39 0.38 0.37 0.35 0.34 0.34 0.32 0.31 0.30 0.30 0.29 0.28 0.27 0.26 0.26 0.25
0.88 0.88 0.86 0.87 0.87 0.87 0.87 0.86 0.83 0.80 0.79 0.78 0.76 0.75 0.75 0.75 0.74 0.74 0.74 0.74 0.74 0.73 0.72 0.71 0.70 0.70 0.68 0.66 0.64 0.62 0.60 0.59 0.58 0.55 0.54 0.52 0.50 0.48 0.46 0.45 0.45 0.45 0.45 0.46 0.46 0.46 0.46 0.47 0.47 0.46 0.46 0.45 0.45 0.45 0.44 0.44 0.43 0.43 0.43 0.43 0.41 0.40 0.38 0.37 0.37 0.37 0.37 0.38 0.38 0.35 0.33 0.34 0.32 0.31 0.30 0.28 0.26 0.26 0.24 0.22 0.20 0.18 0.17 0.16 0.14
0.84 0.85 0.85 0.85 0.85 0.85 0.84 0.83 0.82 0.80 0.79 0.78 0.77 0.76 0.75 0.74 0.74 0.73 0.73 0.73 0.72 0.72 0.71 0.69 0.67 0.65 0.63 0.61 0.60 0.60 0.59 0.55 0.52 0.50 0.48 0.46 0.45 0.44 0.45 0.45 0.46 0.46 0.47 0.48 0.48 0.48 0.48 0.48 0.48 0.48 0.47 0.46 0.45 0.44 0.44 0.43 0.41 0.40 0.38 0.36 0.35 0.34 0.34 0.34 0.34 0.34 0.35 0.36 0.35 0.33 0.31 0.30 0.27 0.25 0.24 0.21 0.20 0.19 0.17 0.15 0.15 0.14 0.12 0.12 0.11
Wind_Speed
20 18 17 16 16 16 16 17 17 18 18 18 18 17 17 18 19 19 19 19 19 20 21 20 21 21 21 20 19 18 17 15 14 14 14 13 13 12 11 11 10 10 9 9 9 9 9 9 9 9 9 10 10 10 10 10 9 9 9 9 10 10 10 11 12 13 14 14 15 15 15 16 16 17 18 16 17 17 16 17 17 17 18 18 19
19 18 16 15 15 15 15 16 16 17 18 18 17 17 17 17 18 18 19 20 20 21 21 21 21 21 21 21 20 18 17 16 15 14 14 13 13 12 11 11 10 9 9 9 9 9 9 9 9 10 10 10 10 10 10 9 9 9 9 9 10 10 10 11 12 13 14 14 14 14 15 16 16 17 17 16 17 17 16 17 18 18 19 19 20
19 18 16 15 14 14 14 15 15 16 17 17 17 17 17 17 17 17 18 19 20 21 22 21 21 21 21 21 19 18 17 16 15 14 14 13 13 12 11 10 9 9 9 9 9 9 9 10 10 10 10 10 10 10 10 9 9 9 9 9 10 10 10 11 12 14 14 14 14 14 15 16 15 17 17 16 16 17 16 16 18 18 19 20 21
18 17 16 15 14 14 14 14 14 14 15 15 16 16 17 17 17 17 17 18 19 20 21 21 21 20 20 20 19 18 17 16 14 14 14 14 13 12 11 10 10 9 9 9 9 9 10 10 10 10 10 10 10 10 9 9 9 9 9 9 10 10 11 12 13 14 14 14 14 14 15 15 15 17 17 16 16 17 16 16 18 18 18 20 21
18 17 16 15 14 14 13 13 13 13 13 14 15 15 16 17 17 17 16 17 18 20 20 20 20 20 19 19 18 17 17 16 15 14 14 14 13 12 11 11 10 10 10 10 9 9 10 10 10 11 10 10 10 9 9 9 9 9 9 10 10 11 12 13 13 14 14 14 14 14 15 15 16 16 18 17 16 17 17 17 18 18 19 20 21
17 16 15 15 14 13 13 13 13 13 13 13 14 14 15 15 16 16 17 17 17 19 20 20 20 20 19 18 18 17 17 16 15 15 15 14 13 12 11 11 10 10 10 10 10 10 10 10 10 11 10 10 10 10 9 9 9 9 9 10 10 11 12 13 14 14 13 14 14 14 15 16 16 16 18 17 17 17 18 18 19 19 19 20 22
16 15 15 14 13 13 13 13 13 12 13 14 14 14 14 15 15 16 16 17 17 19 20 20 20 20 20 19 18 17 17 16 15 15 15 14 13 12 11 10 10 10 10 10 10 10 10 11 11 10 10 10 10 10 10 10 9 9 10 10 11 12 13 13 13 13 13 14 14 14 15 16 16 17 18 18 17 17 18 19 20 20 20 21 22
15 15 15 14 13 13 13 12 12 12 12 13 14 14 14 14 14 14 15 16 17 18 19 20 20 20 19 18 18 17 17 16 15 15 14 13 13 12 11 11 11 10 10 10 10 10 11 10 10 10 10 9 9 9 10 10 10 9 10 10 11 12 13 13 13 13 13 14 14 14 15 15 16 17 18 18 18 18 19 19 20 21 21 21 22
15 15 15 14 13 12 12 11 11 11 11 12 12 12 12 13 13 13 14 16 16 17 19 19 19 19 18 18 17 17 16 15 15 15 14 13 13 13 12 11 11 10 10 10 10 10 11 10 9 9 9 9 9 9 9 10 10 10 10 11 12 12 13 13 13 13 13 14 14 14 15 15 16 17 18 19 19 19 19 20 20 21 21 22 23
15 15 14 14 13 12 11 10 10 10 11 11 11 11 11 12 12 12 12 14 15 16 17 17 18 18 18 17 16 16 16 15 15 15 14 13 13 12 12 11 11 11 11 10 10 10 10 9 9 8 8 8 8 8 9 9 9 10 10 11 12 13 13 13 13 13 13 14 14 14 15 16 16 17 18 19 19 19 20 20 21 21 22 23 23
15 15 14 13 13 12 10 10 9 9 10 11 11 11 11 12 12 11 10 12 13 14 15 16 16 16 16 16 15 15 15 15 14 14 13 13 13 12 12 11 11 12 11 11 11 11 10 10 10 9 9 9 8 8 9 9 9 9 10 11 12 13 13 14 14 14 14 14 14 15 15 16 17 17 19 19 19 20 20 20 21 22 23 23 24
15 15 14 13 13 11 10 10 9 9 9 10 10 10 10 11 11 11 10 10 12 13 13 14 15 15 15 15 15 15 15 14 13 13 12 12 13 13 12 12 12 12 12 11 11 11 11 10 10 10 10 9 9 9 9 9 9 10 11 11 12 13 13 14 14 15 14 14 14 15 16 17 17 18 19 19 20 20 20 21 22 22 23 24 24
15 14 13 13 12 11 11 10 9 9 9 9 9 9 10 10 10 10 10 10 11 12 12 13 14 14 14 15 15 14 14 13 13 13 12 12 12 12 12 12 12 12 12 12 12 11 11 11 11 11 10 10 10 10 9 9 10 10 11 12 12 13 14 14 15 15 15 15 14 15 16 17 18 18 19 19 20 20 21 21 22 22 24 24 23
15 14 14 13 12 11 11 10 10 9 9 10 10 10 10 10 10 10 10 11 12 12 12 12 13 13 13 14 15 14 14 13 13 13 13 13 13 12 12 12 12 12 12 12 12 12 12 12 11 11 10 11 11 10 10 10 11 11 12 12 12 13 14 15 15 15 15 15 15 15 16 17 18 19 19 19 20 20 21 22 22 23 24 24 22
15 15 14 13 12 11 11 10 10 10 10 11 11 10 10 10 11 11 11 12 12 13 13 13 13 13 13 14 14 14 14 14 14 14 14 14 13 12 12 12 12 12 12 12 12 12 12 12 11 11 11 11 11 11 11 11 11 12 12 12 12 13 14 15 16 16 15 15 15 15 16 16 17 18 19 19 20 21 22 22 22 22 23 23 22
16 15 14 13 12 12 11 10 10 10 11 11 12 12 12 12 12 12 12 12 13 13 13 14 14 14 14 14 14 15 15 15 15 15 15 15 14 13 12 13 13 13 13 12 12 12 12 12 11 11 11 12 12 12 11 11 12 12 13 13 13 14 15 15 15 15 16 15 15 16 16 17 17 18 19 19 20 21 21 21 21 22 22 23 23
16 15 14 13 13 12 11 11 10 10 11 12 12 12 12 12 12 13 13 13 13 13 14 15 15 15 15 15 15 15 16 16 16 16 16 16 15 13 13 13 13 13 13 13 13 12 12 12 12 12 12 12 12 12 12 12 12 13 13 13 14 14 15 16 16 16 16 16 16 16 17 17 18 19 19 20 20 21 21 21 21 22 22 23 23
16 16 14 13 13 12 12 12 11 11 11 12 12 13 13 13 13 14 14 15 15 15 15 15 15 15 15 15 16 16 16 17 17 17 17 17 15 14 13 14 14 14 14 13 13 13 13 12 12 12 12 13 12 12 13 13 13 13 13 14 14 15 16 16 16 16 17 17 17 17 18 18 19 19 20 20 20 20 21 21 21 22 22 22 23
16 15 14 14 13 13 12 12 12 12 12 12 12 13 13 14 14 15 16 16 16 16 16 16 16 17 17 16 17 17 17 17 18 18 18 17 16 14 14 14 15 14 14 14 14 14 13 13 13 13 12 13 13 13 13 13 13 13 14 14 15 15 16 16 17 17 17 17 18 18 18 18 18 19 20 20 20 20 20 20 21 21 22 22 23
16 15 14 14 13 13 13 12 12 12 12 13 13 14 14 15 15 16 17 17 18 18 18 18 18 18 17 17 18 17 17 18 19 19 18 18 17 15 15 15 15 15 15 15 14 14 14 14 14 14 13 13 13 14 14 14 14 14 15 15 15 16 16 17 17 17 17 18 18 17 18 18 18 18 19 20 20 20 20 20 20 21 21 22 23
16 15 14 14 13 13 13 13 13 13 13 13 13 14 15 16 16 17 17 18 19 20 19 19 18 18 18 18 18 18 18 19 19 19 19 19 18 17 16 16 16 16 16 15 15 15 15 16 16 15 14 14 14 14 14 14 15 15 15 15 16 16 17 17 18 18 18 18 18 17 17 18 18 18 19 19 20 20 20 20 21 21 21 22 23
15 15 14 14 14 13 13 14 13 13 13 14 14 15 16 17 18 18 18 18 19 20 21 20 19 18 18 18 18 18 18 19 19 19 20 20 18 18 17 17 17 17 16 16 16 16 16 16 17 16 15 14 14 15 15 14 15 15 15 15 16 16 17 17 18 18 18 17 18 18 18 18 18 19 19 19 20 20 20 21 21 22 22 22 22
15 15 15 15 15 15 15 15 15 15 15 16 16 17 17 18 19 19 20 20 20 20 21 21 20 19 19 19 19 19 19 20 20 20 20 20 19 18 18 17 17 17 16 16 16 16 16 16 16 16 16 15 15 15 15 15 15 15 15 15 16 17 17 17 18 18 17 17 18 18 18 18 19 19 19 20 20 21 21 21 22 22 22 22 23
15 15 15 15 15 15 15 16 16 16 17 17 18 18 18 19 19 20 20 21 21 20 21 21 21 21 21 20 19 19 20 21 21 21 21 20 19 19 18 18 17 16 16 16 16 16 16 17 16 16 16 15 15 15 15 15 15 15 15 16 17 17 18 18 18 18 18 18 18 18 18 19 19 19 20 20 20 21 21 21 22 22 23 22 22
15 15 14 14 15 15 16 16 17 17 18 18 18 19 19 19 19 19 19 20 20 20 20 21 22 22 22 21 20 20 20 20 21 21 20 20 19 19 18 17 16 16 16 16 15 16 16 17 16 16 16 16 16 16 15 15 15 15 16 16 17 18 18 18 18 18 18 18 18 18 18 19 19 20 20 20 20 21 21 21 21 22 23 22 22
15 15 15 15 16 16 16 17 17 18 18 19 19 19 19 19 19 19 19 19 20 20 19 20 21 22 22 22 21 20 20 21 21 21 20 20 19 18 18 17 16 16 16 15 15 16 16 16 16 16 16 16 16 16 15 15 15 16 16 17 18 18 18 18 18 18 18 18 18 19 19 19 20 20 20 20 20 21 21 21 22 22 23 23 22
14 15 15 16 17 17 17 17 18 18 18 19 19 19 19 19 19 19 18 18 19 19 19 19 20 21 21 22 21 21 20 21 21 21 21 20 19 18 18 17 17 17 17 17 17 17 17 16 16 17 17 16 16 16 16 15 15 16 17 17 18 18 18 18 18 18 18 19 19 19 19 20 20 20 20 20 20 21 21 22 22 22 23 23 23
14 15 15 16 17 17 18 18 18 18 18 19 19 19 19 18 18 18 17 17 18 19 19 19 19 20 21 22 22 21 21 21 22 21 21 21 20 19 18 18 18 18 18 18 17 17 17 17 17 17 16 16 16 16 16 16 16 17 18 18 18 18 18 18 18 18 19 19 19 19 19 20 20 20 20 20 21 21 22 22 22 22 23 23 22
15 15 16 17 17 17 17 18 18 18 18 18 18 18 18 18 17 17 16 16 17 18 18 18 19 19 20 21 22 22 22 22 22 22 22 22 22 20 19 19 19 18 18 17 17 18 18 17 17 17 16 16 16 16 17 17 17 18 18 18 18 18 18 18 18 19 19 19 19 19 19 20 20 20 21 21 21 21 22 22 22 23 23 23 22
16 16 17 17 17 17 17 18 18 18 18 18 17 17 17 16 16 16 16 16 16 16 17 17 18 19 19 20 21 23 23 22 22 23 23 23 22 21 20 19 19 18 18 18 18 18 17 17 17 16 16 17 17 18 18 18 18 18 18 18 18 18 18 18 19 19 19 19 19 19 20 20 20 20 21 21 21 21 22 22 22 23 23 23 23
18 18 18 18 18 18 18 18 18 18 18 18 18 18 17 16 15 15 15 15 15 16 16 17 17 18 19 19 19 21 23 23 22 22 22 22 22 21 21 20 19 19 19 18 17 17 17 17 17 17 17 18 18 18 18 17 17 18 18 18 18 19 19 19 19 19 19 19 20 20 20 20 21 21 21 21 22 22 22 23 23 23 23 23 23
19 20 20 20 20 20 19 19 19 19 19 19 18 18 18 17 16 15 15 15 15 16 16 16 16 17 18 18 18 19 20 21 21 21 21 21 21 20 19 19 18 18 17 17 16 17 17 18 18 18 18 18 17 17 17 18 18 18 18 18 18 19 19 19 20 20 19 19 20 20 20 20 21 21 22 22 22 23 23 23 24 23 23 23 24
21 21 21 21 21 20 20 19 19 19 19 19 19 19 19 18 17 16 15 14 15 16 16 16 16 16 16 16 16 17 18 18 19 20 20 20 20 19 18 18 18 17 17 16 16 17 18 18 18 18 18 17 17 18 18 18 18 18 18 19 19 19 19 19 20 19 19 19 19 20 21 21 22 22 22 22 23 23 24 24 24 24 24 24 25
22 21 21 21 21 21 20 20 20 19 20 20 20 19 19 19 18 17 15 15 15 16 16 15 15 16 16 15 15 15 16 16 17 18 19 19 19 18 18 17 17 17 17 17 17 17 18 18 17 17 17 17 17 18 18 18 18 18 19 19 19 19 19 19 19 19 20 20 20 20 22 22 22 23 23 23 23 24 24 24 24 24 25 26 26
21 21 21 21 21 20 20 20 20 20 20 20 20 20 20 19 18 17 16 16 16 17 17 17 16 16 16 16 16 15 15 16 16 17 17 18 19 18 17 17 16 16 17 17 17 17 17 17 16 16 16 16 17 17 18 18 18 18 19 19 19 19 19 19 19 20 20 20 20 21 22 22 22 23 24 24 24 24 24 25 25 25 26 27 27
20 20 20 20 20 20 19 19 20 20 20 20 21 20 20 19 19 18 18 17 17 17 17 17 17 16 15 15 15 15 14 15 16 16 16 17 17 17 16 16 17 16 16 16 16 16 16 17 16 16 16 17 17 18 18 18 19 19 19 19 19 19 19 19 20 21 21 21 22 22 23 23 23 24 24 24 24 25 25 25 26 26 27 27 27
19 20 20 19 19 19 19 19 20 20 20 20 20 20 19 19 19 19 19 18 17 16 16 17 16 15 14 15 15 14 13 13 14 14 15 16 16 15 15 16 16 16 16 16 16 16 16 16 16 16 16 17 17 18 18 19 20 20 20 20 20 20 20 21 21 22 22 22 22 23 23 24 24 25 25 25 25 26 26 26 27 28 28 27 27
18 19 19 18 18 18 18 18 19 19 19 19 19 19 19 19 19 19 19 18 17 17 17 17 16 15 14 14 14 14 13 13 13 13 13 14 15 15 14 14 15 16 16 16 16 16 15 15 16 16 17 17 18 18 19 19 20 20 20 20 20 21 21 21 22 22 22 22 23 24 24 25 25 26 26 26 27 27 27 27 28 28 28 27 27
17 17 17 17 17 17 17 17 17 17 17 18 18 19 19 19 19 19 19 18 18 17 17 17 16 15 15 14 14 14 13 13 13 13 14 14 14 14 14 14 16 17 16 15 15 16 16 16 16 17 17 18 18 19 19 19 19 19 19 20 20 21 21 22 23 23 23 23 25 25 26 26 26 26 26 27 27 28 28 28 29 28 28 28 28
15 15 15 15 15 16 16 16 16 16 16 17 17 18 18 18 19 19 19 19 18 18 17 17 16 16 15 15 14 14 14 14 14 14 14 14 13 13 14 15 15 15 14 14 15 16 16 16 17 17 17 18 19 19 19 19 19 19 20 20 21 22 22 23 23 23 23 25 26 26 26 26 27 27 27 27 28 28 28 29 29 29 29 29 29
14 14 14 14 15 15 15 15 15 15 15 15 16 16 17 17 17 17 18 18 18 18 17 16 16 16 16 15 15 15 15 15 15 15 14 14 13 14 15 15 14 13 14 15 15 16 16 16 17 17 18 18 19 19 19 19 20 20 21 21 22 22 22 23 23 23 24 25 26 26 26 27 27 27 28 28 28 29 29 29 29 29 29 30 30
13 13 13 13 14 14 14 14 14 14 14 14 15 15 16 16 16 16 17 17 17 17 16 16 16 16 16 16 16 16 16 16 16 15 15 15 14 14 14 14 14 14 15 15 15 16 16 16 17 17 17 18 19 20 20 21 21 21 22 22 22 22 23 24 24 25 26 26 27 27 27 27 28 28 29 29 29 29 29 29 29 30 30 31 31
11 12 12 12 13 13 13 13 12 12 12 13 13 14 15 15 15 15 15 16 15 15 15 15 16 16 15 16 16 16 15 15 15 15 15 15 14 14 14 14 14 14 14 15 15 16 16 17 17 17 18 19 20 21 21 22 22 22 22 22 23 23 24 25 26 27 27 27 28 28 28 28 29 30 30 30 30 30 30 30 31 31 32 32 33
10 10 11 12 12 12 12 12 12 11 12 12 12 13 14 14 14 14 13 13 13 13 13 14 15 15 15 15 15 15 15 15 15 14 14 15 14 14 13 13 13 14 14 14 15 16 17 18 18 19 20 20 21 21 21 21 22 22 23 23 24 24 25 26 27 27 28 28 28 28 29 29 30 30 30 30 30 31 31 31 32 33 33 33 33
8 9 11 11 12 12 12 12 12 11 11 11 11 12 13 13 12 12 12 12 12 12 12 13 14 15 15 15 15 15 14 13 13 13 14 14 14 13 13 13 14 14 15 15 15 16 17 18 19 20 20 20 20 20 21 21 21 22 23 24 25 25 26 27 27 27 28 28 28 29 29 29 30 30 30 30 30 31 31 32 32 33 33 34 34
7 8 9 10 11 12 12 12 11 10 10 9 10 10 11 12 12 12 11 12 12 12 12 12 13 13 13 13 13 13 13 12 12 13 13 13 13 13 13 14 15 15 15 16 16 17 18 19 19 20 20 20 20 20 21 21 21 22 23 24 25 25 26 27 27 27 27 28 28 29 29 29 29 29 30 30 31 31 32 32 33 33 34 34 35
7 8 8 9 10 10 11 11 10 9 9 9 9 10 10 11 12 12 12 12 12 11 11 12 12 12 12 12 12 12 12 13 13 13 13 13 13 14 14 15 16 16 17 17 18 18 18 19 19 19 19 20 20 20 21 21 22 22 23 24 25 25 26 26 26 27 27 28 28 28 28 28 29 30 30 31 32 32 33 33 34 34 35 36 36
7 8 8 9 9 10 10 10 10 10 9 9 9 10 10 11 11 11 11 11 11 11 11 11 12 12 12 11 11 12 12 12 13 13 13 13 13 14 15 15 16 16 17 17 17 18 18 18 19 19 19 19 20 20 21 21 22 22 23 24 24 25 25 25 26 26 27 27 28 28 28 29 30 30 31 32 32 33 34 34 35 36 36 37 37
8 8 9 9 9 9 10 10 10 10 10 10 10 10 10 11 11 11 11 11 11 11 11 11 11 11 11 11 12 12 12 12 12 12 13 13 13 14 14 15 15 15 16 16 17 17 18 18 18 19 19 19 20 20 21 21 22 22 23 23 24 24 25 25 26 26 27 27 28 29 29 30 31 31 32 33 34 34 35 36 36 37 37 38 39
10 10 9 10 10 10 10 10 10 10 10 10 11 10 10 10 11 11 11 11 11 11 11 11 11 11 11 11 11 11 11 11 11 12 12 12 13 14 14 14 15 15 16 16 17 17 17 17 18 18 18 19 19 19 20 20 21 22 22 23 23 24 24 25 26 27 27 28 29 30 30 31 32 32 33 34 35 35 36 37 38 39 39 40 41
11 11 11 10 11 11 11 11 11 11 11 11 11 11 10 10 10 10 10 10 11 11 11 12 12 12 11 11 11 11 11 11 11 11 12 12 13 14 14 15 15 16 16 16 16 17 17 17 17 17 18 18 18 19 19 20 20 21 22 22 23 24 25 26 27 27 28 29 30 30 31 32 33 34 34 35 36 37 38 39 40 40 41 41 42
Wind_Direction
231 236 240 245 250 250 250 250 250 250 248 247 246 245 246 244 240 239 239 238 238 234 232 234 235 231 227 226 227 230 232 235 235 234 235 236 236 239 243 245 251 257 265 271 275 279 284 289 294 299 304 309 315 319 320 320 320 321 322 320 321 321 320 320 320 321 324 326 327 328 330 333 334 334 337 338 338 337 335 337 337 337 338 339 339
229 234 239 245 250 250 249 249 250 248 245 245 246 246 247 244 241 242 241 239 239 236 234 234 232 228 226 225 226 228 229 230 231 231 232 232 234 238 241 243 248 255 262 268 272 277 282 288 292 297 302 308 314 318 318 318 318 319 320 320 320 321 321 320 321 323 323 324 327 327 330 333 333 334 336 337 336 334 333 335 336 336 337 337 336
227 232 238 243 248 249 249 249 250 248 245 244 245 245 246 246 244 242 242 242 240 237 233 231 228 226 225 222 224 226 224 225 229 230 229 230 234 238 239 241 247 254 261 267 271 276 281 286 290 294 301 307 313 316 316 316 317 317 319 320 320 321 322 321 322 323 322 323 326 328 331 333 333 333 333 334 335 333 331 333 335 335 336 337 336
226 230 236 241 247 249 249 250 250 249 248 245 242 242 245 246 244 242 243 243 239 235 230 227 225 223 222 221 223 224 220 222 229 230 227 230 234 235 235 240 247 254 262 267 271 275 280 284 289 293 300 306 311 315 315 314 315 316 317 318 318 319 321 321 321 321 321 323 326 328 330 332 332 333 333 332 333 332 329 331 332 332 334 337 337
225 229 235 240 245 248 248 250 250 250 250 245 242 244 247 246 242 242 243 241 237 231 226 224 223 221 221 222 223 222 219 221 228 229 226 229 233 232 234 240 247 254 260 264 269 274 279 283 287 292 298 304 308 312 313 313 314 315 316 314 315 317 319 320 320 320 321 323 326 328 329 330 330 331 332 331 330 330 329 330 330 328 329 333 335
225 229 235 239 243 245 245 247 249 250 250 246 244 248 249 245 241 241 242 239 235 230 225 224 222 221 223 224 223 221 219 222 228 227 224 228 231 233 235 239 247 254 258 262 269 274 277 281 286 292 297 302 306 308 309 310 312 314 314 313 314 317 318 319 319 320 322 323 326 327 328 330 330 330 330 330 328 328 328 329 329 328 328 331 333
223 228 234 237 240 242 243 246 249 250 249 247 249 252 250 244 243 244 242 238 233 228 224 222 220 221 225 225 224 222 218 221 226 225 223 227 230 231 235 240 247 253 256 262 269 273 276 281 286 292 297 301 303 305 306 308 309 312 312 311 314 317 318 318 319 319 322 324 325 326 327 328 330 330 329 329 328 328 328 328 328 329 329 330 331
222 228 232 234 238 241 243 245 248 248 248 249 250 251 247 243 242 244 240 235 230 225 222 219 219 221 224 224 223 220 216 220 226 223 222 226 228 230 235 241 246 250 256 263 268 272 276 282 287 290 294 299 300 300 303 305 308 310 311 310 313 316 317 319 319 319 320 322 324 325 326 327 329 328 329 331 329 327 328 327 327 328 328 329 330
221 227 230 233 236 239 241 244 247 246 247 249 248 245 242 238 238 241 237 230 226 222 220 218 218 219 220 220 220 216 215 223 227 221 221 226 228 231 236 240 245 249 256 262 267 272 277 281 284 287 292 297 299 300 302 305 307 308 309 311 313 315 316 318 319 319 319 320 322 324 325 326 328 328 330 332 330 327 327 327 326 327 328 328 329
220 225 229 232 234 235 238 241 243 243 245 247 243 239 238 233 232 234 228 221 219 216 214 215 215 216 216 216 215 214 218 224 224 221 223 227 228 232 235 238 245 251 257 261 265 271 276 277 279 284 290 295 297 300 304 306 308 309 309 311 314 316 318 318 317 318 318 319 321 323 324 325 327 328 330 331 329 327 327 327 326 327 328 329 329
221 224 227 229 230 232 234 236 239 243 243 242 238 234 232 228 225 223 217 213 213 210 209 211 213 213 214 213 213 216 220 222 221 221 223 225 227 231 234 239 248 254 257 259 262 268 271 272 276 280 284 288 292 297 302 305 309 311 313 314 316 317 318 318 317 317 317 319 320 321 322 323 325 327 328 329 330 329 328 327 326 327 328 328 328
219 222 225 226 226 226 228 231 236 240 238 235 231 228 224 220 218 217 215 213 211 209 209 210 210 211 212 212 214 218 221 221 220 220 220 221 227 232 237 244 250 253 256 258 261 265 268 268 272 275 277 280 285 291 298 303 306 310 313 316 319 319 318 318 317 316 316 318 320 321 322 322 323 326 326 328 329 329 329 328 326 326 327 327 327
216 219 221 220 220 221 224 228 231 233 232 227 223 220 215 212 213 216 218 216 213 212 211 209 210 212 213 214 217 220 222 221 219 219 220 223 229 236 242 248 251 252 255 258 259 262 265 267 270 272 272 273 278 284 292 298 303 306 310 315 319 319 319 318 318 317 316 318 320 321 321 321 322 324 325 326 326 327 328 327 327 326 327 327 328
214 216 216 215 217 221 224 227 229 230 228 224 219 216 214 213 214 217 219 219 217 214 211 211 213 215 216 218 220 222 224 223 221 220 223 227 233 240 246 249 250 253 255 258 258 259 262 266 269 270 269 270 274 279 285 291 297 301 305 310 316 317 317 317 317 317 317 318 319 320 321 321 322 323 325 325 325 326 326 326 327 327 327 328 329
213 212 211 212 217 222 224 227 229 229 226 224 222 221 221 221 220 221 221 219 218 216 217 219 221 221 221 222 223 225 227 227 225 224 227 231 236 242 247 248 250 255 256 257 257 258 261 265 266 266 267 269 272 279 284 287 292 298 302 307 311 314 316 317 317 317 317 317 318 319 320 321 322 324 325 324 325 325 325 325 325 326 328 329 329
211 209 209 212 217 221 224 226 229 229 226 226 226 226 227 226 225 224 222 220 220 221 223 224 225 226 226 226 226 228 230 231 229 228 230 233 236 241 247 249 251 255 255 255 256 258 260 263 262 264 268 269 272 278 284 288 292 296 300 303 305 309 314 316 316 316 316 316 317 318 319 320 321 324 325 324 324 325 325 326 327 327 329 330 330
210 208 209 214 218 222 225 227 228 229 227 227 229 230 230 229 228 227 225 223 224 226 226 227 228 229 229 230 231 231 233 234 233 232 232 233 235 242 248 250 252 254 254 254 255 256 258 260 261 265 269 269 271 276 282 288 292 294 298 301 302 304 308 311 313 314 315 314 315 316 318 318 318 322 324 323 324 325 326 328 329 330 331 331 330
208 208 211 215 219 224 228 229 231 232 231 231 233 233 232 231 232 234 232 230 228 229 229 230 231 232 233 234 235 234 235 236 234 232 232 231 235 244 250 251 252 253 253 253 253 254 257 260 262 265 267 268 270 275 282 287 291 293 297 299 301 304 307 309 310 311 313 313 312 312 314 314 314 317 320 321 321 324 327 328 329 330 332 332 331
209 211 215 218 222 227 231 232 235 237 237 237 236 235 234 234 237 239 237 234 232 230 231 232 234 236 237 238 237 236 237 237 234 232 231 232 237 245 251 252 252 252 252 251 252 254 257 259 262 265 266 268 271 276 282 288 291 293 296 298 299 303 308 310 311 310 311 313 312 311 312 312 311 312 316 318 319 322 326 327 328 331 333 334 333
210 213 218 221 225 230 233 235 238 240 241 240 239 238 238 238 240 241 239 236 234 233 233 234 237 239 239 239 239 239 239 238 234 231 231 233 239 245 250 253 251 250 250 249 250 254 257 257 261 264 266 267 271 277 283 288 292 293 296 298 298 301 305 309 312 311 309 310 311 310 311 312 311 311 313 315 317 320 323 325 327 330 333 334 334
212 216 220 222 227 233 236 237 239 241 244 243 242 243 243 242 242 243 241 239 237 236 236 237 239 239 239 238 238 240 241 238 234 233 232 235 241 245 249 253 251 249 250 249 249 254 257 257 259 262 265 267 272 277 283 288 292 293 296 298 298 300 304 307 310 310 308 308 309 309 310 312 312 311 311 312 314 317 320 323 325 326 329 332 333
215 219 223 227 232 237 240 240 242 245 247 246 245 246 246 245 245 244 243 241 241 239 237 238 239 238 237 237 239 242 243 238 235 234 234 237 242 245 248 252 252 249 249 249 251 255 257 258 258 260 264 268 272 277 282 287 290 292 295 297 299 301 304 306 308 308 307 308 309 310 311 311 311 311 310 311 313 314 316 320 323 323 323 326 329
217 221 227 232 237 241 242 243 246 250 250 249 249 249 248 247 247 246 243 242 243 241 237 237 238 236 236 238 241 245 245 240 237 237 237 238 243 245 248 251 250 248 249 251 253 254 255 257 258 259 263 267 271 275 280 285 288 291 295 298 300 303 304 306 308 308 307 308 309 310 311 311 310 310 310 311 313 314 314 316 320 322 321 321 323
221 225 230 236 239 243 245 246 250 252 253 253 252 250 249 249 248 248 246 244 244 243 238 236 235 235 236 239 242 246 247 242 238 239 239 239 242 245 247 248 246 246 250 253 253 253 253 254 257 260 263 266 270 274 278 282 285 290 294 297 300 303 304 305 307 307 307 308 308 309 309 310 310 311 311 310 311 313 315 315 316 318 319 319 318
225 229 234 239 242 245 249 252 255 256 256 256 254 252 251 251 250 250 249 247 245 244 240 236 235 235 238 241 243 245 244 239 237 239 238 238 241 243 243 243 243 246 251 253 253 252 251 253 257 261 264 267 270 273 276 280 283 288 292 296 299 302 303 304 304 305 307 307 308 308 308 308 309 310 311 311 311 313 315 316 315 316 318 318 317
231 234 238 242 246 249 253 257 259 260 259 258 257 255 253 252 250 250 250 248 245 243 242 239 236 236 239 241 242 243 241 238 237 238 237 237 239 240 240 240 241 246 251 252 252 252 252 254 259 262 264 267 269 272 275 279 283 287 290 295 299 301 301 303 304 305 306 307 308 308 308 307 308 309 309 310 313 314 315 316 316 316 318 318 317
235 238 242 246 251 254 258 261 261 261 261 260 258 257 255 252 251 251 250 247 244 242 242 242 240 239 240 241 241 243 241 238 237 237 236 236 237 238 239 239 241 246 251 252 251 252 254 258 261 262 263 265 268 272 276 279 283 288 291 296 301 302 301 302 303 305 306 307 308 308 308 307 308 309 309 309 312 314 315 316 317 317 317 318 317
239 242 245 249 254 258 261 263 263 263 264 262 259 257 255 253 252 253 251 248 244 242 243 244 244 244 242 241 240 241 241 238 237 237 236 234 234 236 238 241 244 248 250 248 248 252 256 259 260 260 262 265 269 273 277 279 283 288 291 293 298 301 302 303 303 304 305 307 308 307 307 308 309 309 310 310 310 312 314 315 315 316 316 317 317
245 247 250 254 257 260 262 264 265 265 263 261 258 257 255 252 252 252 250 248 246 244 245 246 247 248 246 243 241 240 239 238 237 237 236 234 234 236 239 242 244 246 246 246 249 253 256 258 259 260 263 266 270 274 277 280 283 287 290 291 294 297 300 301 302 303 304 305 308 308 307 308 309 309 310 311 311 311 313 313 313 314 315 315 316
251 253 256 258 260 261 263 264 264 262 260 257 256 255 254 253 252 250 247 247 247 247 247 249 249 247 246 246 244 240 238 238 238 237 237 236 235 237 240 242 243 243 245 248 252 254 255 257 260 262 265 269 272 274 276 279 282 285 289 291 293 296 299 299 300 303 304 304 306 307 306 307 309 309 310 311 311 311 312 313 312 313 314 314 314
255 257 260 262 262 263 263 262 260 257 255 254 253 252 250 251 252 250 247 246 248 249 250 250 249 247 247 249 248 243 240 239 240 239 237 234 234 238 241 242 242 244 246 249 251 253 256 259 262 265 267 270 272 274 276 278 281 285 289 292 293 295 297 298 299 302 304 303 304 305 305 306 308 308 309 310 311 311 312 312 312 313 313 313 313
258 260 262 263 262 262 261 260 257 254 252 250 250 249 247 246 247 248 248 247 249 250 250 249 249 249 249 249 249 246 241 240 240 239 236 233 233 237 240 241 243 246 247 248 251 255 258 260 263 266 268 270 272 274 277 280 282 284 287 290 293 295 296 296 298 300 301 302 303 304 305 306 307 308 308 309 310 310 311 311 311 311 312 311 311
260 261 262 262 262 260 259 258 256 253 250 248 247 247 245 242 242 243 245 247 249 250 251 250 249 249 249 250 250 248 244 242 239 236 232 231 233 236 238 241 245 246 246 249 254 258 259 261 264 266 268 271 272 274 278 281 283 285 288 290 292 293 294 296 298 299 300 302 302 302 304 305 306 307 307 307 309 310 310 310 310 310 310 310 310
261 261 260 260 260 259 258 257 255 252 249 247 245 244 243 242 240 239 240 244 247 248 250 252 251 251 252 254 254 251 248 243 237 231 229 230 233 236 239 242 244 245 246 250 256 260 260 262 265 267 269 271 273 275 279 282 284 286 290 291 292 293 295 296 297 297 299 301 301 302 304 305 305 307 307 307 308 309 309 309 309 308 308 308 308
260 259 259 259 259 259 258 256 254 252 248 245 244 243 241 240 239 237 238 241 244 245 246 250 254 256 257 258 257 255 250 242 235 232 232 234 236 238 239 241 241 243 246 251 256 261 263 265 266 269 271 273 275 277 280 283 285 287 289 291 293 295 295 296 296 297 299 300 300 302 304 305 305 307 308 307 307 308 308 308 307 307 307 307 307
259 258 257 257 257 257 256 254 253 251 248 244 242 240 240 239 238 238 238 241 243 243 244 248 252 256 258 259 257 253 247 240 236 235 236 237 237 237 238 238 238 241 248 254 258 261 265 267 269 271 273 275 277 279 281 283 286 287 289 292 294 294 294 294 296 299 299 299 300 302 304 304 305 305 306 305 305 306 306 306 306 306 307 307 306
258 257 256 255 254 253 252 252 251 249 246 242 240 239 239 239 239 239 240 242 242 242 244 247 249 251 255 255 251 247 242 239 237 236 236 235 236 236 237 238 239 243 250 256 259 262 266 270 272 274 275 277 279 280 282 284 285 286 288 290 291 292 293 294 296 298 299 300 301 302 303 303 303 304 304 304 304 305 305 305 305 306 306 306 306
257 256 255 253 251 250 249 248 247 246 243 241 239 239 238 237 238 238 239 240 241 242 244 245 247 248 248 246 244 241 236 232 231 231 231 232 233 235 238 243 247 250 253 258 262 265 269 273 275 276 277 280 281 282 284 285 286 287 288 289 290 291 293 294 295 297 298 299 300 301 302 302 303 303 304 304 304 305 305 305 305 306 305 305 305
256 254 252 250 249 247 245 244 243 242 241 239 238 238 237 237 238 238 239 241 242 242 243 244 245 245 242 239 237 234 229 226 227 228 228 229 232 238 245 252 255 255 257 261 266 269 271 274 276 279 281 283 285 286 286 287 288 289 290 290 290 291 292 293 294 295 297 298 299 300 301 302 302 303 303 303 304 304 305 305 305 304 304 304 305
253 251 249 248 246 243 242 241 240 239 238 237 236 236 237 237 237 238 239 241 241 242 243 243 242 241 238 234 230 227 225 226 227 227 228 231 238 247 255 258 257 257 260 265 270 274 275 275 277 281 284 286 287 288 288 289 290 291 291 291 291 291 292 294 295 295 296 298 299 300 300 300 302 303 303 303 304 304 304 304 304 303 303 304 305
253 251 248 246 244 240 238 238 238 237 236 235 235 236 237 238 238 238 238 239 240 242 242 240 237 234 231 227 225 225 226 227 228 229 231 236 245 254 259 259 258 262 266 268 272 276 278 279 280 282 284 286 288 289 289 291 292 292 291 291 292 292 293 295 295 295 296 297 298 298 299 300 301 302 303 303 304 304 303 303 303 303 304 304 304
253 249 244 242 241 237 234 233 233 234 234 235 236 237 238 238 239 238 237 239 240 240 237 233 229 226 224 223 225 227 227 227 230 233 235 241 249 257 260 259 260 266 269 270 273 277 280 281 282 283 284 285 287 289 290 290 291 291 291 291 291 291 292 293 294 295 296 297 297 298 299 300 301 302 302 303 303 303 302 302 303 303 303 304 304
248 243 238 236 235 232 228 227 228 231 234 236 236 236 237 238 238 236 235 234 233 231 228 225 222 221 221 222 223 224 227 230 234 237 239 244 252 260 263 263 265 270 273 274 276 277 278 280 281 283 285 287 289 290 290 290 290 290 291 290 290 291 293 294 295 296 297 297 298 299 299 300 300 301 302 302 302 302 302 302 303 303 303 303 303
243 238 233 231 229 225 222 223 226 230 233 234 234 234 234 233 230 227 224 222 221 220 218 217 216 216 217 218 221 228 235 239 239 240 244 250 256 263 267 268 271 273 275 276 277 278 278 280 282 284 287 289 290 291 292 292 292 292 292 291 292 293 295 296 297 297 298 298 299 299 300 300 301 301 301 301 302 302 302 303 303 304 304 304 304
242 235 230 226 223 221 220 222 226 228 230 232 232 230 226 221 217 214 212 210 210 211 212 211 211 212 215 220 229 238 242 240 238 243 251 256 261 265 268 269 270 273 275 278 280 282 283 284 286 287 289 291 293 294 294 295 296 296 295 295 295 295 296 297 298 299 299 299 299 300 300 301 301 301 302 302 303 303 304 305 305 305 305 305 305
234 230 225 221 218 216 216 218 220 223 226 226 222 217 212 208 206 206 205 204 205 208 210 211 211 212 218 227 235 239 239 239 243 251 256 259 261 263 265 268 270 273 277 281 283 286 288 289 290 290 291 292 294 295 296 297 298 298 298 298 297 298 298 299 299 300 300 300 300 301 301 302 302 303 304 305 305 305 306 306 306 306 306 306 306
227 223 219 215 213 211 211 212 214 219 221 217 208 202 200 200 201 203 206 208 211 214 215 215 214 217 224 232 238 240 243 247 251 254 257 259 260 262 265 268 272 275 279 282 285 287 289 290 291 291 292 293 295 296 297 298 298 298 298 299 299 300 300 301 301 302 302 302 302 303 303 304 304 305 306 306 306 306 306 307 306 306 306 306 305
229 223 215 210 207 207 208 209 212 215 213 207 202 200 200 200 202 206 211 215 220 222 221 220 222 227 233 240 244 246 248 250 252 255 258 261 262 264 267 270 273 277 280 282 285 287 289 290 291 293 294 295 297 298 298 299 299 299 300 301 302 303 304 304 304 304 305 305 305 306 306 306 306 307 307 307 307 307 307 307 306 306 306 306 305
229 224 218 214 214 213 211 211 213 213 210 206 206 207 206 206 209 213 216 220 224 226 226 227 230 235 240 245 248 249 250 252 255 258 261 262 264 267 270 273 275 278 281 283 286 288 289 291 293 294 296 297 298 298 299 299 300 300 301 303 305 306 307 307 307 308 308 308 308 308 308 308 307 307 307 307 307 307 307 307 307 307 306 306 306
229 224 220 218 218 218 217 217 218 218 216 213 212 212 211 213 218 221 223 226 228 228 228 231 235 240 243 246 248 250 253 256 259 261 263 265 267 270 272 274 277 280 282 285 287 288 290 292 295 296 297 297 298 298 299 300 301 303 305 307 309 309 310 310 310 311 310 310 309 310 309 309 308 308 308 308 308 308 308 308 308 307 307 306 306
232 230 226 222 218 217 218 218 219 219 219 219 218 218 219 221 224 226 227 229 229 229 231 236 240 244 247 250 252 254 256 258 260 263 265 267 269 271 274 276 278 280 282 284 287 289 292 294 296 297 298 298 299 301 302 304 306 308 310 311 312 312 312 312 312 312 312 311 311 311 311 310 310 309 309 309 309 309 309 308 308 307 306 306 306